Retour au catalogue

STARLINK-31646

ActifCommunicationsVLEO
NORAD 59265·PAYLOAD·🇺🇸 United States

Lancé Mar 19, 2024 depuis Vandenberg Space Force Base

Loading…

Prochains Passages (prochaines 24 heures)

TLE

FraisSource: CelesTrak SupGP

Époque: Sep 15, 2026, 03:15 UTC

1 59265C 24050M   26258.13590278  .00046967  00000+0  13876-2 0  2582
2 59265  53.1593  18.5633 0001120  93.4506  80.2198 15.34367361    10

Suivez STARLINK-31646 en temps réel avec AllMySat

Download on the App Store